Weather History for Kimball, NE

Change the Weather History Date:

Monday, August 12, 2013

  Actual Average (KSNY) Record (KSNY)
Temperature  
Mean Temperature 68 °F 74 °F  
Max Temperature 81 °F 89 °F 100 °F (1969)
Min Temperature 55 °F 59 °F 43 °F (2004)
Degree Days  
Heating Degree Days 0 0  
Month to date heating degree days 0  
Since 1 June heating degree days 62  
Since 1 July heating degree days 3  
Cooling Degree Days 3 9  
Month to date cooling degree days 118  
Year to date cooling degree days 596  
Since 1 June cooling degree days 574  
Growing Degree Days 18 (Base 50)    
Moisture  
Dew Point 55 °F    
Average Humidity 68    
Maximum Humidity 95    
Minimum Humidity 34    
Precipitation  
Precipitation 0.01 in 0.07 in 0.80 in (1973)
Month to date precipitation 0.99  
Year to date precipitation 13.89  
Sea Level Pressure  
Sea Level Pressure 30.19 in    
Wind  
Wind Speed 4 mph (South)    
Max Wind Speed 16 mph    
Max Gust Speed 26 mph    
Visibility 10 miles    
Events Rain , Thunderstorm    
T = Trace of Precipitation, MM = Missing Value Source: NWS Daily Summary

Daily Weather History Graph

Daily Weather History Graph

Search for Another Location

Airport:

Trip Planner

Search our weather history database for the weather conditions in past years. The results will help you decide how hot, cold, wet, or windy it might be!

Date:

Astronomy

Aug. 12, 2013 Rise Set
Actual Time 7:01 AM CDT 8:57 PM CDT
Civil Twilight 6:31 AM CDT 9:27 PM CDT
Nautical Twilight 5:55 AM CDT 10:03 PM CDT
Astronomical Twilight 5:15 AM CDT 10:42 PM CDT
Moon 12:58 PM CDT (8/12) 11:47 PM CDT (8/12)
Length of Visible Light 14h 55m
Length of Day
13h 55m
Waxing Crescent, 31% of the Moon is Illuminated
Aug 12
Waxing Crescent
Aug 14
First Quarter
Aug 20
Full
Aug 28
Last Quarter
Sep 5
New

Hourly Weather History & Observations

Time (CDT) Temp. Heat Index Dew Point Humidity Pressure Visibility Wind Dir Wind Speed Gust Speed Precip Events Conditions
2:15 AM 61.7 °F - 55.9 °F 81% 30.20 in 10.0 mi ESE 3.5 mph - N/A   Clear
2:35 AM 60.6 °F - 55.4 °F 83% 30.19 in 10.0 mi Calm Calm - N/A   Clear
2:55 AM 59.4 °F - 55.4 °F 87% 30.18 in 10.0 mi Calm Calm - N/A   Clear
3:15 AM 59.0 °F - 55.9 °F 90% 30.19 in 10.0 mi West 8.1 mph - N/A   Clear
3:35 AM 59.4 °F - 56.3 °F 90% 30.18 in 10.0 mi West 6.9 mph - N/A   Clear
3:55 AM 58.3 °F - 55.8 °F 91% 30.18 in 10.0 mi WNW 6.9 mph - N/A   Clear
4:15 AM 59.0 °F - 56.8 °F 93% 30.18 in 10.0 mi WNW 8.1 mph - N/A   Clear
4:35 AM 59.2 °F - 57.0 °F 93% 30.18 in 10.0 mi SE 4.6 mph - N/A   Clear
4:55 AM 58.6 °F - 56.1 °F 91% 30.18 in 10.0 mi South 4.6 mph - N/A   Clear
5:15 AM 58.1 °F - 55.8 °F 92% 30.18 in 10.0 mi SSW 3.5 mph - N/A   Clear
5:35 AM 57.4 °F - 55.4 °F 93% 30.17 in 10.0 mi Calm Calm - N/A   Clear
5:55 AM 55.8 °F - 54.0 °F 94% 30.19 in 10.0 mi Calm Calm - N/A   Clear
6:15 AM 55.0 °F - 53.6 °F 95% 30.19 in 7.0 mi ENE 3.5 mph - N/A   Clear
6:35 AM 55.8 °F - 54.0 °F 94% 30.19 in 10.0 mi Calm Calm - N/A   Clear
6:55 AM 55.9 °F - 53.8 °F 92% 30.19 in 10.0 mi Calm Calm - N/A   Clear
7:15 AM 55.6 °F - 53.8 °F 94% 30.19 in 10.0 mi West 3.5 mph - N/A   Clear
7:35 AM 56.7 °F - 54.9 °F 94% 30.20 in 7.0 mi Calm Calm - N/A   Clear
7:55 AM 57.6 °F - 55.8 °F 94% 30.20 in 10.0 mi Calm Calm - N/A   Clear
8:15 AM 59.4 °F - 57.0 °F 92% 30.20 in 10.0 mi West 3.5 mph - N/A   Clear
8:35 AM 61.5 °F - 57.2 °F 86% 30.20 in 10.0 mi WNW 3.5 mph - N/A   Clear
8:55 AM 62.6 °F - 57.6 °F 84% 30.21 in 10.0 mi West 4.6 mph - N/A   Clear
9:15 AM 63.9 °F - 58.5 °F 83% 30.22 in 10.0 mi Calm Calm - N/A   Clear
9:35 AM 65.5 °F - 59.0 °F 80% 30.21 in 10.0 mi Calm Calm - N/A   Clear
9:55 AM 66.9 °F - 59.7 °F 78% 30.21 in 10.0 mi SW 4.6 mph - N/A   Clear
10:15 AM 68.5 °F - 59.7 °F 73% 30.22 in 10.0 mi Calm Calm - N/A   Clear
10:35 AM 70.3 °F - 59.2 °F 68% 30.21 in 10.0 mi Calm Calm - N/A   Clear
10:55 AM 73.0 °F - 56.8 °F 57% 30.22 in 10.0 mi Calm Calm - N/A   Clear
11:15 AM 74.1 °F - 56.5 °F 54% 30.22 in 10.0 mi SE 3.5 mph - N/A   Clear
11:35 AM 74.8 °F - 56.7 °F 53% 30.22 in 10.0 mi SE 3.5 mph - N/A   Clear
11:55 AM 76.1 °F - 56.3 °F 50% 30.22 in 10.0 mi Calm Calm - N/A   Clear
12:15 PM 76.6 °F - 55.8 °F 48% 30.22 in 10.0 mi Calm Calm - N/A   Clear
12:35 PM 77.0 °F - 57.2 °F 50% 30.22 in 10.0 mi SSE 5.8 mph - N/A   Clear
12:55 PM 77.0 °F - 55.9 °F 48% 30.22 in 10.0 mi Calm Calm - N/A   Clear
1:15 PM 78.6 °F - 55.6 °F 45% 30.21 in 10.0 mi SE 5.8 mph - N/A   Clear
1:35 PM 79.9 °F - 55.4 °F 43% 30.21 in 10.0 mi SE 5.8 mph - N/A   Clear
1:55 PM 79.7 °F - 52.5 °F 39% 30.20 in 10.0 mi Calm Calm - N/A   Scattered Clouds
2:15 PM 80.4 °F 80.2 °F 54.0 °F 40% 30.19 in 10.0 mi Calm Calm - N/A   Mostly Cloudy
2:35 PM 80.1 °F - 50.5 °F 36% 30.19 in 10.0 mi SE 9.2 mph - N/A   Mostly Cloudy
2:55 PM 81.7 °F - 50.5 °F 34% 30.19 in 10.0 mi Calm Calm - N/A   Scattered Clouds
3:15 PM 81.3 °F - 50.5 °F 34% 30.18 in 10.0 mi SSW 3.5 mph - N/A   Scattered Clouds
3:35 PM 81.3 °F - 52.7 °F 37% 30.18 in 10.0 mi ESE 11.5 mph - N/A   Mostly Cloudy
3:55 PM 78.1 °F - 53.1 °F 42% 30.17 in 10.0 mi SE 11.5 mph - N/A   Overcast
4:15 PM 76.3 °F - 54.5 °F 47% 30.18 in 10.0 mi SE 10.4 mph - N/A Thunderstorm Thunderstorm
4:35 PM 70.9 °F - 59.4 °F 67% 30.16 in 10.0 mi SE 6.9 mph - N/A Rain Light Rain
4:55 PM 71.8 °F - 61.0 °F 69% 30.17 in 10.0 mi ESE 5.8 mph - N/A   Scattered Clouds
5:15 PM 72.5 °F - 62.4 °F 71% 30.17 in 10.0 mi SE 5.8 mph - N/A   Mostly Cloudy
5:35 PM 72.7 °F - 60.1 °F 64% 30.17 in 10.0 mi ESE 6.9 mph - N/A   Scattered Clouds
5:55 PM 73.0 °F - 59.4 °F 62% 30.16 in 10.0 mi ESE 6.9 mph - N/A   Clear
6:15 PM 73.6 °F - 57.4 °F 57% 30.16 in 10.0 mi East 5.8 mph - N/A Thunderstorm Clear
6:35 PM 73.2 °F - 57.6 °F 58% 30.19 in 10.0 mi Calm Calm - N/A Thunderstorm Clear
6:55 PM 73.2 °F - 56.5 °F 56% 30.21 in 10.0 mi NW 11.5 mph 17.3 mph N/A   Mostly Cloudy
7:15 PM 71.1 °F - 43.2 °F 37% 30.21 in 10.0 mi North 16.1 mph 26.5 mph N/A Rain Light Rain
7:35 PM 66.9 °F - 47.1 °F 49% 30.21 in 10.0 mi NNW 12.7 mph - 0.01 in Rain , Thunderstorm Rain
7:55 PM 70.7 °F - 42.4 °F 36% 30.19 in 10.0 mi SSE 3.5 mph - 0.01 in Rain Light Rain
8:15 PM 69.4 °F - 50.4 °F 51% 30.18 in 10.0 mi South 6.9 mph - N/A Thunderstorm Scattered Clouds
8:35 PM 70.0 °F - 50.0 °F 49% 30.19 in 10.0 mi SSW 16.1 mph - N/A Thunderstorm Thunderstorm
8:55 PM 65.7 °F - 51.6 °F 60% 30.18 in 10.0 mi South 11.5 mph - N/A   Clear
9:15 PM 64.4 °F - 52.7 °F 66% 30.18 in 10.0 mi SSW 12.7 mph - N/A   Clear
9:35 PM 64.6 °F - 52.2 °F 64% 30.19 in 10.0 mi SSW 15.0 mph - N/A   Clear
9:55 PM 63.9 °F - 52.5 °F 67% 30.21 in 10.0 mi SW 11.5 mph - N/A   Clear
10:15 PM 63.5 °F - 52.2 °F 67% 30.21 in 10.0 mi SW 11.5 mph - N/A   Clear
10:35 PM 62.6 °F - 52.3 °F 69% 30.21 in 10.0 mi WSW 8.1 mph - N/A   Clear
10:55 PM 61.7 °F - 52.9 °F 73% 30.21 in 10.0 mi WSW 8.1 mph - N/A   Scattered Clouds
11:15 PM 60.6 °F - 53.2 °F 77% 30.21 in 10.0 mi West 10.4 mph - N/A   Scattered Clouds
11:35 PM 60.3 °F - 52.9 °F 77% 30.21 in 10.0 mi WNW 11.5 mph - N/A   Scattered Clouds
11:55 PM 59.5 °F - 53.6 °F 81% 30.21 in 10.0 mi WNW 9.2 mph - N/A   Scattered Clouds